Location: Dos Palmas
(32.4468°N, 116.8732°W)
Time: 05:40:30
(UTC+00:00)

Cosmos 1953 - Pass Details

Date: 20 June 2021
Orbit: 538 x 557 km, 82.5° (Epoch: 29 July)

Event Time Altitude Azimuth Distance (km) Brightness Sun altitude
Rises 04:52:57 0° 355° (N) 2,744 6.7 -20.1°
Reaches altitude 10° 04:55:08 10° 357° (N) 1,844 5.7 -20.4°
Maximum altitude 04:59:12 75° 84° (E) 577 2.2 -21.0°
Enters shadow 04:59:36 67° 135° (SE) 603 2.2 -21.0°
